Regional Weather Roundup
Issued by NWS

Home | Current Version | Previous Version | Graphics & Text | Print | Product List | Glossary On
Versions: 1 2 3 4 5 6 7 8 9 10 11 12 13 14 15 16 17 18 19 20 21 22 23 24 25 26 27 28 29 30 31 32 33 34 35 36 37 38 39 40 41 42 43 44 45 46 47 48 49 50
000
ASUS43 KLOT 011000
RWRIL

ILLINOIS REGIONAL WEATHER ROUNDUP
NATIONAL WEATHER SERVICE CHICAGO/ROMEOVILLE IL
400 AM CST SUN FEB 01 2015

NOTE: "FAIR" INDICATES FEW OR NO CLOUDS BELOW 12,000 FEET WITH NO
SIGNIFICANT WEATHER AND/OR OBSTRUCTIONS TO VISIBILITY.

* THESE STATIONS ARE NOT UNDER NWS QUALITY CONTROL. THEY ALSO MAY NOT
  REPORT WEATHER SUCH AS PRECIPITATION OR FOG.

ILZ001-002-007-009-015-016-024-011100-
NORTHWEST ILLINOIS

CITY           SKY/WX    TMP DP  RH WIND       PRES   REMARKS
MOLINE         LGT SNOW  32  31  96 E9        29.91F VSB 3/4 WCI  24
STERLING*        N/A    N/A N/A N/A MISG        N/A
$$

ILZ003-004-008-010-011-017-018-011100-
NORTH CENTRAL ILLINOIS

CITY           SKY/WX    TMP DP  RH WIND       PRES   REMARKS
ROCKFORD       LGT SNOW  30  27  88 E14       30.03F VSB 1   WCI  19
$$

ILZ005-006-012>014-019>023-011100-
NORTHEAST ILLINOIS

CITY           SKY/WX    TMP DP  RH WIND       PRES   REMARKS
CHICAGO-OHARE  LGT SNOW  31  29  92 E10       30.04F VSB 3/4 WCI  22
CHICAGO-MIDWAY LGT SNOW  33  30  88 E10       30.04F FOG     WCI  25
AURORA         LGT SNOW  32  29  88 E13       30.02F VSB 3/4 WCI  22
WAUKEGAN       LGT SNOW  29  28  96 NE13      30.07F VSB 1   WCI  19
DUPAGE AIRPORT LGT SNOW  31  29  92 NE10      30.02F VSB 1   WCI  22
WHEELING       LGT SNOW  31  29  92 E8        30.07F FOG     WCI  23
NORTHERLY ISL    N/A     31  30  96 E13         N/A  WCI  21
$$

LMZ740>746-011100-
SOUTHERN LAKE MICHIGAN

STATION/POSITION SKY/WX   TEMP    WIND        PRES    VSBY  WAVE
                          AIR SEA DIR/SP/G                  HT/PER
                          (F)     (DEG/KT/KT) (MB)    (MI)  (FT/S)
WAUKEGAN HARBOR            30      70/ 16/ 21   N/A
HARRISON CRIB              31      80/ 15/ 17   N/A
BURNHAM HARBOR             31      70/ 12       N/A
CALUMET HARBOR             31      60/ 11/ 14   N/A
MICHIGAN CITY              30      50/  6/  8   N/A
$$

ILZ025>027-034>036-040-047-049-050-058-095>099-011100-
WEST-CENTRAL ILLINOIS

CITY           SKY/WX    TMP DP  RH WIND       PRES   REMARKS
QUINCY         LGT SNOW  33  31  92 SE9       29.85F FOG     WCI  25
$$

ILZ028>032-037-038-041>044-048-051>054-059>061-011100-
CENTRAL ILLINOIS

CITY           SKY/WX    TMP DP  RH WIND       PRES   REMARKS
BLOOMINGTON    LGT SNOW  34  34 100 E9        29.98F FOG     WCI  26
DECATUR        FLURRIES  36  28  73 SE5       29.97F WCI  32
PEORIA         SNOW      34  32  92 E10       29.94F VSB 1/2 WCI  26
SPRINGFIELD    LGT SNOW  33  32  96 SE12      29.92F VSB 1   WCI  24
TAYLORVILLE    NOT AVBL
$$

ILZ033-039-045-046-055>057-062-063-011100-
EAST-CENTRAL ILLINOIS

CITY           SKY/WX    TMP DP  RH WIND       PRES   REMARKS
CHAMPAIGN      CLOUDY    34  33  96 E16       29.97F WCI  24
MATTOON        MIX PCPN  35  26  69 E8        29.95F WCI  29
$$

ILZ079-100>102-011100-
SOUTHWEST ILLINOIS

CITY           SKY/WX    TMP DP  RH WIND       PRES   REMARKS
BELLEVILLE     LGT RAIN  36  32  85 E6        29.86F WCI  31
CAHOKIA*       RAIN      36  33  89 NE5       29.89F FOG     WCI  32
$$

ILZ064>066-069>071-074>076-080>082-084>086-088>090-092>094-011100-
SOUTH-CENTRAL ILLINOIS

CITY           SKY/WX    TMP DP  RH WIND       PRES   REMARKS
CARBONDALE     LGT RAIN  44  22  41 S13       29.90F
MT. VERNON     CLOUDY    37  25  60 E8        29.92F WCI  31
$$

ILZ067-068-072-073-078-083-087-091-011100-
SOUTHEAST ILLINOIS

CITY           SKY/WX    TMP DP  RH WIND       PRES   REMARKS
LAWRENCEVILLE  CLOUDY    36  26  67 E9        29.99F WCI  29
$$

ABBREVIATIONS USED IN REMARKS
   TC - TEMPERATURE IN CELSIUS
  WCI - WIND CHILL INDEX
   HX - HEAT INDEX
  VSB - VISIBILITY
$$



USA.gov is the U.S. government's official web portal to all federal, state and local government web resources and services.